User: anonymous   Login
Location: Unspecified
(0.0000°N, 0.0000°E)
Time: 08:50:00
(UTC+00:00)
Language:

NOAA 17 - Orbit

View from above orbital plane
View from above orbital plane
View from above satellite
View from above satellite

Ground track
Ground track

The orbit data is extracted from the following two-line orbital elements,

1 27453U 02032A   15242.51314892  .00000005  00000-0  19637-4 0  9990
2 27453 098.3468 224.8545 0011100 330.8830 029.1730 14.24896995685243
Epoch (UTC): 30 August 2015 12:18:56
Eccentricity: 0.0011100
inclination: 98.3468°
perigee height: 801 km
apogee height: 817 km
right ascension of ascending node: 224.8545°
argument of perigee: 330.8830°
revolutions per day: 14.24896995
mean anomaly at epoch: 29.1730°
orbit number at epoch: 68524

The dashed part of the orbit path shows where the satellite is in the earth's shadow,  

DLR